Location: Dannhausen
(51.8650°N, 10.1026°E)
Time: 02:12:07
(UTC+00:00)

Cosmos 2233 Rocket - Pass Details

Date: 12 August 2020
Orbit: 952 x 992 km, 82.9° (Epoch: 26 September)

Event Time Altitude Azimuth Distance (km) Brightness Sun altitude
Exits shadow 21:21:47 26° 123° (ESE) 1,835 4.9 -18.4°
Maximum altitude 21:24:04 34° 86° (E) 1,586 4.9 -18.6°
Drops below altitude 10° 21:29:38 10° 24° (NNE) 2,766 6.8 -19.0°
Sets 21:32:23 0° 16° (NNE) 3,717 7.7 -19.2°
